Wind_Speed
27 25 23 21 21 21 22 21 19 16 13 9 8 10 11 10 9 9 9 8 6 6 8 7 7 7 7 7 8 10 10 9 8 7 6 7 7 3 10 9 8 15 21 21 21 19 19 23 25 24 25 25 27 31 33 35 37 38 37 36 36 35 33 33 34 35 34 34 38 41 42 44 46 47 50 51 50 49 48 45 42 42 45 48 46 43 42
26 24 22 21 20 21 21 21 19 16 13 10 7 9 11 9 8 8 8 7 5 5 7 6 7 7 7 8 9 8 8 9 9 9 8 7 8 7 4 4 4 7 17 22 22 20 19 22 24 24 25 25 24 27 33 36 37 37 36 35 34 32 32 33 34 35 35 33 35 39 42 44 45 47 49 50 50 50 51 49 46 42 43 47 48 46 44
26 23 21 20 20 21 21 21 19 16 13 10 8 9 11 10 7 7 7 6 5 5 5 6 7 8 9 9 9 7 7 8 8 9 10 8 6 6 4 2 1 2 10 19 23 21 20 21 23 24 23 23 24 25 31 37 37 36 36 35 34 31 30 32 35 37 38 36 36 40 44 45 46 46 48 49 50 50 51 50 48 45 44 46 48 47 44
25 22 20 19 20 20 20 20 19 18 15 11 8 9 11 10 8 6 6 5 4 5 4 5 6 7 9 9 8 8 7 6 7 8 9 9 6 4 3 3 1 1 4 13 22 24 21 20 22 23 20 18 19 22 29 35 37 36 35 34 34 33 32 33 37 39 40 40 40 42 44 46 46 46 47 49 51 51 51 50 49 47 45 45 46 45 43
25 22 19 19 19 20 19 19 19 18 16 13 9 9 12 12 9 7 7 6 5 5 5 4 4 5 7 8 7 7 6 6 6 6 6 8 8 5 2 2 2 1 3 10 20 25 23 20 20 22 21 16 15 17 24 33 36 36 34 31 32 34 35 36 38 40 42 42 42 43 44 45 46 45 46 48 50 52 52 51 50 48 46 44 44 44 42
25 22 19 18 18 19 19 19 19 19 17 14 10 9 11 12 10 9 8 7 6 6 6 5 3 3 5 7 7 6 6 6 4 4 5 5 6 7 5 3 3 3 4 7 14 20 22 21 20 22 22 20 18 17 21 29 34 36 36 33 32 33 35 37 39 40 42 43 43 43 43 45 45 44 44 47 50 52 53 53 52 51 49 46 44 43 41
25 22 19 18 18 17 18 19 19 19 17 14 11 9 11 13 12 10 10 8 6 6 6 6 4 2 4 6 7 6 6 5 3 3 4 4 4 5 6 5 2 4 5 6 8 13 18 19 18 20 20 18 18 20 22 27 31 35 37 36 36 36 35 36 38 40 42 44 44 44 44 44 45 44 45 47 50 52 53 54 54 53 51 49 46 43 41
25 22 19 18 17 16 17 19 19 19 17 14 12 10 11 13 13 12 11 9 6 5 6 6 4 2 2 4 6 6 6 5 4 4 3 2 3 3 4 5 5 2 4 6 6 8 16 19 16 16 16 14 14 18 24 27 29 33 36 38 39 40 38 36 35 39 42 43 45 45 45 45 46 46 46 48 50 52 53 53 53 52 51 50 49 46 42
25 23 20 18 17 16 17 19 19 19 17 15 12 10 11 13 14 14 12 10 6 5 5 6 5 3 1 2 4 5 5 5 5 4 3 2 2 3 3 4 5 5 2 5 7 6 12 18 17 15 15 14 12 15 21 26 28 31 36 38 39 41 41 38 34 36 39 41 41 40 41 44 46 45 47 49 51 54 54 52 52 51 49 48 48 47 44
25 23 20 18 17 16 17 19 19 19 18 15 13 11 11 13 16 16 13 11 8 6 5 6 5 3 1 3 5 6 4 3 3 4 4 3 3 3 3 4 4 5 5 2 6 8 8 12 15 16 16 15 14 14 17 22 26 29 33 38 40 41 43 42 38 35 37 39 39 35 35 38 41 43 45 47 49 53 54 53 52 51 50 49 47 47 45
26 23 20 18 17 16 16 18 19 19 19 16 14 12 11 13 16 17 15 13 10 8 6 5 4 3 3 5 6 6 3 3 3 3 3 4 4 3 4 4 4 4 6 5 2 7 9 8 10 13 15 15 14 13 14 17 21 25 30 36 41 42 43 44 42 38 37 40 42 40 38 39 40 41 43 44 46 49 50 50 50 50 51 50 49 48 47
26 24 21 18 17 16 16 18 20 20 19 17 15 13 11 13 16 17 16 15 12 9 7 5 4 5 5 5 5 5 5 4 3 2 1 3 4 4 4 4 4 4 5 6 6 3 7 9 8 8 11 13 13 12 13 14 17 20 25 31 38 42 43 44 44 41 38 41 45 46 44 42 42 43 43 44 47 48 48 47 46 47 48 48 48 48 48
26 24 22 19 17 17 16 18 20 21 20 18 16 14 12 13 15 17 18 16 13 10 8 5 4 6 6 5 4 5 6 5 4 4 2 1 2 3 4 4 4 5 5 6 7 6 5 7 8 7 8 9 10 12 13 15 15 16 19 25 33 40 42 42 43 43 40 41 46 47 45 44 44 44 44 45 47 48 47 45 44 45 46 46 46 47 47
26 24 22 20 18 17 17 17 20 21 20 18 16 15 14 13 14 16 18 18 14 11 9 6 5 6 6 5 5 5 5 5 5 5 4 2 1 0 2 3 4 5 5 6 7 7 6 6 6 7 7 8 9 10 12 14 15 15 15 19 25 33 39 41 41 42 41 40 42 43 43 43 44 43 43 44 46 46 47 46 46 46 46 46 47 47 48
26 24 23 20 18 17 17 17 19 21 21 18 16 14 14 13 13 15 18 18 15 12 11 8 6 6 6 6 6 5 4 5 6 6 5 4 3 2 1 1 2 4 5 6 7 7 7 6 6 5 6 7 9 10 10 11 12 13 14 16 18 24 31 36 39 41 41 41 40 39 38 40 41 41 41 43 43 44 45 46 47 47 48 48 48 47 46
26 24 23 21 19 18 17 17 19 21 21 18 16 14 13 13 13 14 17 19 17 14 12 10 8 7 8 7 6 6 5 5 6 6 6 5 5 4 3 2 1 2 3 5 5 6 6 6 6 5 5 5 7 8 9 9 10 11 13 15 17 19 22 27 32 36 39 40 41 41 40 39 38 39 38 39 40 40 40 42 43 45 46 48 49 47 46
26 24 23 21 19 18 18 17 18 20 21 19 16 14 14 13 13 14 16 19 18 15 13 11 9 8 7 6 6 7 6 5 5 6 6 7 7 7 6 5 4 3 3 4 4 4 5 5 5 5 5 5 5 5 6 7 9 11 12 14 16 17 19 22 24 28 33 36 37 38 41 41 41 40 38 37 37 37 35 37 38 39 41 43 46 48 48
26 24 23 21 20 19 18 17 18 20 21 19 17 14 14 13 12 13 16 19 19 17 15 13 10 8 7 7 8 8 7 6 6 7 7 7 8 8 7 7 7 6 5 5 5 5 4 3 3 3 4 4 4 4 4 5 6 8 10 11 14 16 17 19 21 23 25 28 31 33 36 38 40 42 42 41 39 38 37 37 37 37 37 39 41 43 46
25 24 23 21 20 19 18 17 18 20 20 19 17 14 13 12 12 13 15 18 19 18 17 15 12 10 9 9 9 9 8 7 7 8 8 8 7 7 7 8 8 8 7 6 6 6 6 5 5 5 4 3 3 3 3 4 5 6 7 9 11 14 16 18 20 22 23 25 27 29 31 34 35 37 38 39 39 39 39 39 39 39 40 41 41 42 44
25 24 23 21 19 19 18 17 18 20 20 19 16 14 12 12 11 12 15 18 19 19 18 15 13 11 11 10 10 10 9 8 8 8 8 8 7 6 7 8 8 9 8 7 7 7 7 7 7 6 5 5 4 4 4 3 4 5 6 7 9 11 13 16 18 20 22 24 26 27 29 31 33 35 36 37 38 39 39 39 39 40 41 42 43 44 45
25 24 22 21 19 18 18 17 18 19 20 19 16 14 12 11 10 11 14 18 19 19 18 15 13 12 11 10 11 11 10 10 9 8 8 8 7 7 8 9 9 9 9 8 8 7 8 8 8 8 7 6 7 6 4 3 4 5 6 7 9 11 12 15 17 19 21 23 26 27 29 30 32 33 35 36 38 39 39 40 41 42 42 43 44 45 46
24 23 22 21 20 18 18 17 17 19 19 18 16 13 11 9 10 11 15 18 19 19 18 16 14 13 12 11 12 12 12 11 10 9 9 9 7 7 9 10 10 10 10 10 10 9 9 8 9 9 9 9 9 8 7 6 7 7 8 9 10 11 13 15 17 18 20 22 24 26 28 30 32 33 34 35 36 38 39 40 42 43 44 45 45 47 48
23 23 22 20 20 19 18 17 17 18 19 18 15 12 10 9 10 13 16 18 20 19 17 15 14 13 12 12 12 12 13 12 11 11 10 9 8 8 10 12 11 11 11 11 12 12 11 10 9 9 10 10 11 11 11 11 11 11 12 12 13 13 14 16 18 19 21 23 24 26 28 29 31 32 34 35 36 37 38 40 41 42 44 45 46 47 48
23 22 21 20 19 19 18 17 17 18 18 17 14 12 9 9 12 14 16 18 19 18 17 15 14 13 13 13 12 13 14 13 12 11 11 10 9 10 11 12 12 12 12 12 12 13 13 12 11 11 11 12 12 13 13 13 13 14 15 16 16 16 17 18 19 20 21 23 25 26 27 29 30 31 32 33 35 37 38 39 41 42 43 44 45 46 48
22 22 20 19 19 18 18 17 17 17 17 16 13 11 9 10 13 15 16 17 18 17 16 15 14 14 14 13 13 13 13 13 13 12 11 10 10 11 12 13 13 13 12 12 13 14 14 13 13 12 12 13 13 14 14 14 15 16 18 20 20 19 19 20 21 21 22 24 25 26 28 29 30 31 31 32 33 35 37 39 40 41 43 43 44 45 47
22 21 20 19 18 18 17 16 16 17 17 15 12 10 9 11 14 15 16 17 17 17 16 15 15 15 14 13 13 12 12 13 13 13 11 10 10 12 13 13 13 13 13 13 14 15 15 14 14 14 14 15 15 15 15 16 17 18 21 22 23 23 22 23 23 23 24 26 27 29 30 31 31 32 32 33 33 33 35 37 39 40 42 43 44 45 47
22 21 19 18 18 18 17 16 16 16 16 14 12 9 9 12 15 16 16 16 16 16 16 16 15 14 13 13 13 13 13 13 13 12 12 11 11 12 13 14 14 14 14 14 14 15 15 15 15 16 16 16 16 16 16 18 19 20 22 24 25 26 26 26 26 26 26 26 28 30 31 32 33 33 34 34 34 33 34 35 37 39 41 42 43 44 45
21 20 19 18 18 17 16 16 16 16 15 13 11 8 10 13 15 16 16 16 16 15 15 15 15 14 13 14 14 13 12 13 13 13 12 12 12 13 14 15 15 14 14 14 15 15 16 17 17 17 17 17 17 17 18 19 21 23 25 26 27 27 28 28 29 28 28 28 29 30 31 33 34 35 35 36 36 36 36 36 36 38 40 41 42 43 44
20 19 18 17 17 17 16 15 15 15 14 13 10 9 12 14 16 16 16 15 15 15 15 15 14 14 14 14 13 13 13 13 13 13 13 13 13 14 14 15 15 14 14 15 15 16 17 18 19 19 19 18 18 18 19 22 24 26 27 28 28 28 29 29 30 30 29 29 29 29 29 31 33 35 36 36 36 37 37 37 37 38 40 41 42 42 43
19 19 18 17 17 17 15 15 15 15 14 12 9 10 13 15 16 16 16 15 15 15 15 15 15 14 15 14 13 13 14 13 13 13 14 14 15 15 14 14 14 14 14 15 15 16 18 19 20 21 21 20 20 21 22 24 25 27 28 28 29 29 29 29 30 30 29 28 27 27 27 28 30 32 33 35 35 36 37 37 38 38 39 41 42 43 43
19 18 17 17 17 16 15 15 15 14 13 11 10 11 14 15 16 16 16 15 15 15 15 15 15 15 15 14 13 14 14 14 13 14 14 14 15 15 14 14 14 14 15 15 16 17 18 20 21 22 23 23 23 23 24 26 27 28 28 29 29 29 29 29 29 28 27 27 26 26 26 27 28 29 31 32 33 34 35 36 37 38 39 40 41 43 44
18 17 17 17 16 15 15 15 15 14 12 11 10 12 14 15 15 15 15 15 15 15 15 15 14 14 14 14 13 13 13 14 14 14 14 14 14 14 14 14 14 15 16 16 17 17 19 20 21 22 23 23 24 25 26 28 29 29 29 29 29 29 29 28 27 26 26 26 26 25 26 26 27 28 29 31 32 34 34 35 36 38 40 41 42 43 44
17 16 16 16 15 15 15 15 14 13 12 11 11 13 15 15 15 14 14 15 15 14 14 14 14 13 13 13 13 12 12 14 15 15 14 13 13 14 14 15 16 17 17 18 18 18 19 19 20 21 21 22 23 26 28 29 29 29 29 29 29 29 28 27 26 25 25 25 25 25 25 26 26 27 28 29 31 33 34 35 35 36 38 40 42 43 44
16 16 16 15 15 14 15 15 14 12 11 11 13 15 16 15 15 14 14 14 14 14 14 13 13 13 13 13 13 12 12 13 14 14 13 12 13 13 14 15 17 18 19 20 20 20 19 19 19 19 20 22 24 27 28 29 29 29 29 29 29 28 27 26 25 25 24 24 24 25 25 26 27 28 28 28 29 31 33 34 35 36 36 38 39 41 42
16 16 16 15 14 14 15 15 13 11 11 13 15 17 17 16 15 14 14 13 13 13 13 13 12 12 12 12 12 13 13 13 13 13 13 13 13 13 13 14 16 18 20 21 22 21 20 20 20 22 23 24 26 28 28 29 29 29 29 29 28 28 27 27 26 25 24 24 25 25 25 26 27 28 29 29 30 30 31 32 34 35 36 36 38 39 41
15 15 15 14 14 15 15 15 13 11 11 14 16 18 17 16 15 14 13 13 12 12 12 12 11 11 12 12 12 12 13 13 13 13 13 13 13 12 12 14 16 18 20 21 22 23 23 22 23 24 25 26 27 28 28 29 29 29 29 29 29 29 28 28 27 26 25 24 25 25 26 26 26 27 28 29 29 30 30 31 32 33 34 35 36 37 39
15 15 14 14 14 15 15 14 12 11 12 15 17 18 18 16 15 13 13 12 12 12 11 11 11 11 12 12 12 12 12 12 12 13 13 13 13 12 13 15 17 18 19 21 22 22 22 22 23 25 26 27 28 28 29 29 29 29 29 29 30 30 30 29 28 27 26 25 26 26 27 27 28 28 29 29 30 30 31 31 32 32 32 33 34 35 37
15 14 14 14 14 14 14 13 11 11 13 16 19 19 18 16 15 13 13 12 12 11 11 11 11 11 12 12 12 12 12 12 13 13 13 12 13 13 15 17 18 18 19 20 20 20 21 22 24 25 26 27 28 28 29 30 29 29 30 30 31 31 31 29 29 28 28 28 28 28 29 30 31 32 32 32 33 33 32 33 33 33 34 34 34 35 35
14 14 14 14 14 14 14 13 12 12 14 18 19 19 18 17 15 13 13 13 12 11 11 11 11 11 11 11 12 12 12 13 14 14 14 14 14 15 17 18 19 18 18 19 20 21 22 24 25 25 25 27 28 28 29 30 30 31 31 32 32 32 31 30 30 30 31 31 31 31 32 33 34 34 35 35 35 35 35 35 36 36 36 36 36 36 36
14 14 14 14 14 14 14 13 12 13 15 19 20 20 18 16 15 14 13 12 11 11 10 10 10 11 11 11 11 12 12 13 14 15 15 16 16 17 18 18 18 18 18 20 21 23 24 25 25 24 25 27 28 29 30 31 31 32 33 33 32 32 31 31 31 32 33 33 34 35 36 36 36 36 36 36 36 36 37 37 38 38 39 39 39 39 38
14 14 14 14 14 14 13 12 12 14 16 19 21 20 18 16 14 14 13 11 11 10 10 9 10 10 10 10 10 11 12 13 14 15 16 16 17 18 19 18 17 18 19 20 22 23 24 25 25 24 25 27 29 29 30 31 32 33 33 33 33 32 31 32 32 34 35 36 37 38 38 38 37 37 37 37 37 37 38 38 39 40 40 41 41 41 41
14 14 14 14 14 14 13 13 13 15 17 20 20 19 18 16 14 13 12 11 10 9 9 9 9 9 10 10 10 11 12 12 13 14 15 16 17 19 19 17 17 18 19 21 22 24 25 25 25 25 26 28 29 30 31 32 33 34 34 34 33 33 33 34 35 36 37 37 38 39 39 39 39 39 39 38 38 38 38 38 39 40 41 42 42 42 42
14 13 14 14 14 14 13 13 14 15 18 20 20 18 17 15 14 13 11 10 9 9 8 8 9 9 9 10 10 11 12 12 13 14 15 16 18 19 18 17 17 19 21 22 23 24 25 26 26 27 28 30 31 32 33 34 34 35 35 35 34 34 35 36 36 36 37 38 39 40 40 41 40 40 40 40 39 39 38 39 39 40 42 43 43 43 43
13 13 14 14 14 13 13 13 14 16 19 20 20 18 16 15 13 12 11 9 9 8 8 8 9 9 10 10 10 11 11 12 13 14 15 16 18 17 17 17 19 22 23 23 24 25 26 27 27 29 31 32 33 34 34 35 35 35 34 34 34 34 35 35 36 37 38 39 40 41 41 40 40 40 40 40 40 40 40 40 40 40 42 43 44 44 45
13 13 13 13 13 12 12 13 14 17 20 20 18 17 16 15 13 12 10 9 9 9 9 9 10 11 11 11 11 11 12 12 13 14 15 16 16 15 15 18 21 22 23 23 24 25 26 27 29 31 32 33 34 35 35 35 35 34 34 34 34 35 35 36 37 37 39 39 40 40 39 39 39 39 39 39 40 41 41 41 41 42 42 43 43 44 45
13 12 12 13 12 12 13 14 16 18 19 18 16 15 15 14 13 11 9 8 9 9 10 10 11 12 12 13 13 13 13 13 13 13 14 15 14 13 15 18 21 21 22 23 25 26 28 29 30 32 33 33 34 34 34 34 34 33 34 34 34 35 36 36 37 38 38 38 38 37 37 37 37 38 38 39 40 40 41 41 41 42 42 42 43 43 45
12 12 12 12 12 12 14 15 17 18 17 17 16 15 14 13 12 11 9 9 9 10 10 11 12 13 15 15 14 14 14 13 13 13 14 14 13 14 17 20 21 21 22 24 26 28 30 31 31 32 33 34 34 34 33 33 34 34 34 34 35 35 36 36 37 37 36 36 35 35 35 36 36 37 37 37 37 37 38 38 39 40 41 42 43 43 44
12 12 11 12 12 13 15 16 17 18 18 17 16 15 14 13 12 11 10 11 11 10 10 11 13 14 15 15 14 14 13 12 12 13 14 14 15 16 18 20 21 22 24 26 27 29 30 31 32 33 34 34 34 34 34 34 35 35 35 35 35 35 35 35 35 35 35 34 33 33 34 35 35 35 34 34 33 33 35 36 37 38 40 40 41 42 43
12 12 12 12 13 14 15 17 18 18 18 17 16 15 14 13 13 12 12 11 11 10 10 12 13 14 14 14 14 13 12 11 12 13 14 14 15 16 18 21 22 23 25 26 28 29 30 31 32 33 34 34 35 35 35 35 35 35 35 35 35 35 35 34 34 33 33 32 32 32 32 33 32 31 30 30 30 31 33 34 34 35 35 36 37 38 39
13 13 13 13 14 15 16 18 18 18 19 18 18 17 16 14 13 13 12 11 10 11 12 13 14 14 14 14 13 12 11 11 12 13 14 14 15 17 19 21 22 24 25 27 28 29 29 31 33 34 35 35 35 35 35 36 35 35 35 35 34 34 33 32 32 31 30 30 30 30 30 30 28 27 27 28 29 31 31 31 30 29 30 31 32 33 33
14 15 15 14 14 15 17 18 19 19 19 20 19 18 16 15 14 14 13 12 12 12 13 13 13 13 13 13 12 11 10 11 12 13 14 15 17 19 20 21 23 24 26 26 27 29 30 32 34 34 35 35 35 35 35 35 35 35 34 34 33 32 31 30 29 29 28 28 29 29 27 26 24 24 25 27 27 27 26 25 24 25 26 26 25 24 24
15 15 16 16 16 16 17 18 19 18 18 20 20 20 18 16 16 16 15 13 13 12 12 13 13 13 13 12 11 10 9 11 13 14 15 17 19 20 20 21 23 25 26 26 27 29 30 32 33 34 34 35 35 35 35 35 35 34 33 32 31 30 28 27 27 27 26 27 27 26 23 21 21 22 23 22 21 20 19 18 18 18 16 15 14 15 16
Wind_Direction
349 349 349 350 352 351 349 347 346 345 342 327 288 263 263 270 287 310 316 307 308 316 319 348 11 358 356 8 15 23 22 19 27 29 23 30 42 136 193 210 231 222 218 217 217 214 200 193 196 196 191 189 189 191 191 186 185 186 187 185 183 184 186 184 185 189 191 195 199 198 197 198 199 201 203 205 208 211 213 215 217 220 224 227 229 232 232
348 349 348 349 351 349 347 346 344 343 341 330 296 264 257 261 278 302 313 310 313 320 313 330 0 4 6 15 16 12 9 14 26 32 29 36 49 64 144 215 282 227 212 217 219 216 207 201 203 203 199 193 189 189 191 190 188 188 188 189 186 185 186 187 189 190 190 193 197 197 198 200 200 201 203 204 207 211 214 217 218 219 223 227 229 231 233
346 347 347 347 348 346 344 344 341 339 338 331 304 268 253 248 259 285 304 310 309 305 301 317 345 3 11 14 11 3 360 8 18 30 37 46 63 70 88 139 286 230 210 215 215 211 209 210 211 210 207 203 198 191 191 192 192 190 189 190 190 187 185 189 194 195 194 196 198 197 198 200 200 200 202 204 207 210 213 217 219 219 221 225 228 229 231
344 345 344 344 345 343 342 342 339 337 336 330 307 273 257 249 247 268 290 296 288 286 293 306 329 0 18 14 3 355 356 6 9 21 37 44 59 88 104 110 130 236 212 209 211 211 212 215 216 212 206 205 207 201 195 195 195 195 193 192 192 190 185 188 196 199 198 198 201 201 199 200 202 201 201 204 207 210 213 215 218 220 221 223 226 227 229
341 342 341 341 342 341 341 340 339 336 335 332 314 275 260 252 245 253 274 284 280 278 279 284 309 356 15 13 7 356 355 10 9 9 29 37 43 62 93 106 125 183 188 190 203 211 216 218 216 212 209 211 218 213 202 197 197 198 199 198 196 194 189 188 195 201 200 198 201 203 201 201 204 204 203 204 207 211 214 215 217 219 220 222 224 226 228
339 338 337 338 340 340 339 338 338 336 333 331 320 282 256 249 245 246 260 275 280 273 271 276 301 348 357 358 8 6 3 15 11 2 25 35 34 45 58 77 133 180 193 192 202 211 215 217 219 220 223 226 226 219 206 200 199 200 202 204 203 202 199 194 192 196 202 201 201 204 205 205 206 205 205 206 208 211 215 216 217 219 220 222 224 225 226
337 335 334 335 337 338 337 336 336 335 331 327 320 293 259 244 240 244 252 266 282 280 280 286 297 331 336 337 353 5 8 18 26 18 29 35 31 40 47 54 97 180 198 206 219 220 215 214 220 228 230 229 227 221 210 203 201 201 202 205 205 206 211 208 196 194 201 203 201 202 205 209 208 206 206 207 210 213 215 218 219 220 221 223 223 224 225
335 333 331 331 334 335 335 334 334 334 330 323 315 298 267 245 237 240 248 257 276 285 284 284 280 279 303 314 331 348 1 15 27 35 42 43 38 41 42 45 56 100 193 203 217 224 215 211 217 225 225 222 221 216 209 205 204 204 204 206 206 207 213 216 207 201 203 206 204 201 202 207 209 208 207 207 210 214 217 218 220 220 221 222 223 223 224
333 331 328 328 330 331 332 333 333 332 329 321 312 298 272 248 237 236 241 248 263 273 266 266 268 263 247 279 298 316 343 9 19 32 45 47 58 69 60 50 54 59 92 200 207 208 209 210 210 209 210 211 208 205 206 207 208 208 207 207 208 208 212 216 212 206 206 210 212 208 204 205 207 209 211 210 209 213 217 220 221 222 221 222 223 224 224
331 330 326 325 326 326 329 332 332 331 327 320 311 298 274 251 239 235 236 240 254 265 258 257 269 278 229 226 254 276 316 359 7 27 39 38 49 71 72 61 58 60 61 120 203 204 203 206 209 209 209 208 203 200 204 206 208 210 210 209 209 210 212 217 216 209 206 210 216 216 209 207 208 212 217 217 214 213 215 218 221 223 224 224 224 225 225
330 328 325 323 323 323 325 330 332 330 325 318 310 298 277 253 242 236 234 235 244 256 259 249 248 248 231 233 248 263 284 319 338 13 39 42 47 60 71 69 63 60 60 63 139 200 201 196 201 210 215 214 206 202 206 207 206 210 212 211 212 212 212 216 219 216 209 208 215 219 215 212 213 215 218 223 223 220 219 219 219 221 224 225 226 227 227
328 327 323 321 320 319 321 326 331 330 326 319 309 298 281 259 244 236 232 233 237 246 253 241 215 218 234 252 264 264 257 262 289 311 5 44 51 57 69 78 73 66 64 62 71 140 191 195 192 197 209 214 209 206 213 214 209 209 212 213 214 215 215 216 220 221 216 209 210 214 212 209 212 215 217 222 226 226 225 224 221 221 223 225 227 228 230
326 325 322 320 318 317 317 322 328 330 327 321 310 297 285 268 250 236 228 229 232 239 248 247 219 214 231 257 273 265 252 246 252 262 276 19 48 54 65 79 86 81 75 71 72 85 140 182 192 192 194 201 203 206 215 219 216 213 213 215 216 217 219 219 220 224 223 214 207 206 207 207 209 212 215 220 226 229 229 228 226 224 224 226 227 228 230
324 323 321 318 317 315 314 318 325 329 327 323 312 298 287 274 257 239 227 224 228 234 241 242 228 221 233 253 263 262 255 247 245 252 257 255 247 63 67 73 85 93 91 85 82 84 99 135 172 189 193 193 197 206 215 221 221 221 220 219 219 219 221 223 225 227 229 225 214 206 204 205 207 210 213 217 222 226 228 229 228 226 225 227 228 229 229
322 322 320 317 316 314 313 315 322 327 327 322 313 301 288 276 263 244 228 219 221 229 236 238 232 226 229 238 249 258 257 250 248 249 248 248 249 235 188 102 88 100 102 94 89 87 88 100 125 156 179 191 198 208 216 221 222 225 227 228 227 225 224 225 228 231 233 235 232 222 213 206 204 206 211 214 217 221 223 226 229 229 228 227 227 228 228
320 321 319 316 315 313 311 313 319 324 326 321 312 301 289 278 265 248 229 217 215 222 231 235 233 228 222 220 237 255 259 254 255 254 249 246 247 245 231 219 212 154 126 112 98 87 84 91 102 116 138 167 189 206 217 221 222 225 228 230 233 234 232 229 230 232 234 239 242 241 236 226 213 208 209 210 213 216 217 220 226 229 230 229 229 228 229
318 318 317 315 314 312 310 311 316 322 325 321 311 300 289 278 264 247 228 216 213 217 223 228 231 233 225 214 224 246 255 256 256 255 249 241 241 243 240 232 232 226 196 163 139 117 98 92 100 113 122 136 159 185 202 211 219 224 228 230 232 235 238 237 236 234 235 238 242 245 247 245 237 232 229 225 221 220 219 220 222 225 227 229 229 230 232
315 316 316 315 313 311 309 309 313 320 323 320 311 300 290 280 264 245 226 213 211 214 218 223 228 230 228 221 218 228 239 244 246 249 249 245 242 243 243 241 240 239 229 208 187 175 157 128 124 136 136 137 146 161 177 193 208 219 226 230 233 235 238 240 241 240 239 239 240 242 246 249 249 249 250 249 246 243 241 237 232 229 230 231 230 231 233
313 313 314 314 312 310 307 307 311 317 321 319 312 301 291 279 262 242 222 211 210 215 217 220 223 223 225 228 227 227 231 234 239 246 253 256 255 252 247 243 240 238 234 225 212 205 200 196 194 189 184 179 171 173 187 199 209 218 223 227 232 235 238 240 242 243 243 242 242 242 243 245 248 250 252 254 254 252 250 249 246 242 241 240 236 235 235
311 311 312 312 311 308 305 304 308 314 319 319 313 303 291 277 259 238 218 208 209 216 218 218 220 221 223 228 233 234 234 237 243 251 258 264 265 261 256 250 242 237 233 229 225 219 214 217 224 223 215 210 208 203 199 210 228 237 238 238 237 237 238 240 241 242 243 244 244 244 243 244 245 247 248 249 249 249 249 250 249 246 244 242 241 239 238
308 308 309 310 310 308 304 302 305 312 318 318 313 304 292 275 253 230 211 204 208 216 217 216 221 224 224 226 232 236 237 240 248 255 259 259 257 255 256 253 247 240 235 232 230 227 222 223 232 239 236 229 228 228 223 227 243 250 253 253 252 249 246 244 243 243 243 244 244 244 244 244 244 245 246 246 247 248 248 248 246 245 243 242 242 241 239
305 306 307 307 308 307 303 300 303 310 316 317 313 305 291 265 239 220 206 202 208 215 216 215 221 227 227 227 232 239 243 246 249 254 256 255 252 250 251 251 248 244 240 236 235 237 238 236 237 241 242 237 238 245 256 266 272 274 274 270 265 260 256 253 251 249 247 246 246 245 245 244 244 244 244 244 245 245 245 245 244 244 242 240 239 239 240
303 303 304 305 306 306 302 298 301 309 314 315 311 302 282 249 223 211 202 202 208 215 216 215 220 228 232 231 232 240 247 250 252 254 256 256 249 245 249 253 253 249 245 242 242 243 246 247 245 243 243 242 244 252 262 271 279 284 286 285 282 276 269 263 259 255 253 252 250 248 247 246 245 244 244 244 243 243 243 243 243 243 242 241 239 238 239
301 301 301 302 304 305 301 297 300 307 312 313 308 295 272 235 211 204 201 202 208 214 216 218 221 228 233 233 232 236 244 249 251 251 252 252 248 243 247 252 255 253 251 249 249 249 248 249 250 249 248 248 250 254 260 268 277 284 289 290 288 286 282 277 272 267 263 259 256 254 253 251 249 248 246 245 244 243 242 241 241 241 241 241 240 238 237
299 298 299 300 302 303 300 296 299 306 310 310 304 288 259 223 205 201 200 203 208 213 216 218 221 226 231 233 234 237 244 250 251 249 246 247 248 247 249 252 254 254 252 249 249 249 249 251 255 258 258 258 258 260 266 273 281 287 292 293 293 290 286 282 279 275 271 267 263 259 256 254 252 251 249 247 246 245 244 243 242 241 240 240 240 239 238
296 296 297 298 300 302 299 295 298 305 308 306 298 279 245 216 204 201 201 204 209 213 216 217 220 224 229 233 235 238 242 247 249 249 248 246 247 250 252 255 256 255 253 249 247 247 247 250 257 263 265 265 267 269 273 277 283 289 294 295 295 293 289 285 281 279 276 272 269 265 261 257 254 252 251 249 247 247 247 246 244 243 242 241 240 239 238
294 294 294 296 299 299 296 293 297 303 305 301 291 268 233 212 204 203 205 208 211 214 216 218 220 223 227 231 234 237 241 245 248 250 252 251 250 251 254 256 256 256 254 252 249 248 248 251 256 261 264 266 269 272 274 278 284 290 294 295 294 292 290 287 285 282 279 276 273 270 266 263 259 255 252 250 249 249 249 249 248 247 245 243 242 241 240
291 291 292 294 297 297 293 291 295 301 301 296 285 255 223 209 205 206 209 211 213 216 218 220 221 222 225 230 235 240 245 249 251 253 256 255 253 250 252 255 257 258 258 257 256 255 255 256 258 261 264 266 269 272 276 281 287 290 291 292 292 291 289 287 285 284 283 280 276 273 269 265 263 260 256 253 251 250 250 249 249 249 248 246 245 243 242
288 288 290 292 294 294 290 288 294 299 298 291 275 240 216 209 207 210 212 214 216 218 220 221 222 223 226 231 236 242 248 251 255 258 260 259 257 255 255 256 258 258 257 257 258 259 260 261 262 263 264 265 267 272 280 285 289 291 292 292 292 290 288 286 285 285 284 282 279 276 271 267 265 263 261 258 255 253 251 250 248 247 247 247 246 245 244
285 286 288 290 291 290 286 286 293 297 293 284 262 231 214 209 209 213 216 218 220 221 222 223 224 225 229 233 238 243 248 250 254 258 261 262 261 260 258 258 257 257 258 259 260 262 263 264 264 264 263 263 267 274 282 288 291 292 293 293 292 290 288 287 287 286 285 282 279 275 271 268 265 264 263 262 259 256 254 252 249 247 245 245 246 246 246
282 284 285 288 288 286 282 285 292 293 287 275 252 226 213 209 212 216 218 221 224 225 226 226 227 228 231 234 237 245 251 254 255 258 260 262 262 261 258 255 253 254 256 259 262 264 266 266 266 265 265 266 270 276 283 288 291 292 293 292 291 290 290 289 288 287 284 281 277 273 270 268 266 264 263 263 262 259 256 253 250 248 246 245 245 246 246
279 281 283 285 285 282 280 285 290 289 280 266 243 222 213 212 215 219 221 223 226 227 228 228 229 230 233 235 236 240 249 257 259 261 261 261 261 261 259 257 256 255 256 259 264 269 271 270 268 267 267 269 272 278 283 288 290 292 293 292 291 290 290 289 289 286 282 279 276 274 272 270 268 267 265 264 263 262 260 257 253 249 247 247 246 246 246
277 278 281 282 280 278 279 284 287 285 274 254 232 217 213 214 217 220 223 225 226 227 227 228 229 230 235 239 241 241 245 252 258 261 261 259 257 257 258 258 259 260 261 264 269 275 277 275 272 270 271 272 276 281 285 288 291 292 292 291 291 290 290 290 289 286 283 279 277 275 274 273 272 270 267 265 264 264 263 262 259 254 251 249 249 248 246
274 276 278 279 276 275 278 282 284 280 264 240 222 214 213 215 218 221 223 224 225 225 226 227 229 231 236 242 247 249 249 250 255 260 261 259 255 254 255 258 260 261 262 265 269 274 276 276 275 274 275 278 282 285 288 290 292 293 292 291 291 290 290 290 290 289 286 282 279 277 275 275 274 272 269 267 265 264 264 264 262 260 256 253 251 249 247
271 274 275 274 272 272 277 281 282 273 252 230 216 211 213 215 218 222 224 223 224 225 226 228 231 234 239 244 249 252 252 251 253 258 260 259 256 257 261 266 268 268 268 268 270 273 276 279 280 280 282 285 287 289 291 293 293 293 292 291 290 290 289 289 289 290 288 284 281 279 278 277 276 274 273 271 269 266 264 263 262 261 260 257 253 251 248
268 271 271 269 268 271 277 280 279 265 242 224 213 210 212 215 218 222 225 224 224 225 227 230 234 238 243 247 249 250 252 253 255 258 259 259 261 265 271 276 278 278 275 273 272 274 277 281 284 285 287 289 290 291 293 293 293 292 291 290 289 289 289 289 288 288 287 284 281 280 279 278 276 275 275 274 272 269 266 264 262 261 260 259 257 254 251
265 267 266 264 266 272 277 279 273 255 234 219 211 209 212 216 220 224 226 226 227 228 230 235 239 243 247 249 248 248 249 251 254 258 260 262 265 270 276 282 285 284 280 276 275 276 279 284 289 291 291 291 291 292 292 293 293 292 291 290 290 290 290 289 286 284 284 284 282 280 279 278 277 276 275 274 273 271 268 265 263 260 258 258 258 257 255
263 263 261 261 266 272 276 274 265 247 228 216 209 208 211 215 220 223 225 226 228 230 233 238 243 247 251 253 252 250 249 251 254 257 259 262 267 273 280 287 290 289 284 279 277 277 282 289 295 296 295 293 292 291 292 293 293 293 292 291 291 292 291 289 285 284 284 284 283 282 281 281 280 279 277 275 273 271 269 266 263 261 259 257 256 256 255
258 258 258 260 266 271 271 268 259 242 223 212 207 208 211 215 220 223 225 226 229 232 236 241 246 251 254 254 253 251 252 254 256 257 260 263 268 277 286 292 294 292 287 281 279 281 287 293 297 298 296 293 291 290 291 293 294 294 294 294 294 294 292 290 286 285 284 284 284 284 284 284 282 280 278 277 274 272 270 267 265 262 260 258 256 255 254
254 254 256 259 265 268 268 262 252 236 218 209 206 208 211 215 220 224 225 226 229 233 238 244 249 252 253 255 255 254 256 258 259 259 261 264 270 280 290 296 297 295 288 283 284 287 291 295 297 297 294 290 290 291 293 295 296 296 297 297 296 296 294 291 287 285 284 284 284 285 285 284 283 281 278 276 275 272 270 268 265 263 261 259 257 256 254
250 251 254 259 264 267 264 256 244 230 215 206 205 208 211 216 221 224 224 226 231 236 242 249 253 253 253 255 257 257 259 260 260 260 261 265 273 283 292 296 296 295 292 289 291 293 295 296 296 293 290 291 294 296 298 299 299 299 299 298 298 296 294 290 288 286 285 285 285 286 286 285 283 282 279 277 274 272 269 268 266 264 262 260 259 257 256
248 249 253 258 262 264 260 249 237 223 211 204 203 207 213 218 222 223 224 227 235 242 247 248 249 250 252 254 258 261 263 264 263 264 268 273 280 286 291 294 296 299 299 298 297 296 296 295 293 292 294 298 301 303 302 302 301 300 300 299 297 295 292 290 289 287 287 286 286 286 287 286 285 283 281 278 275 272 269 267 266 265 263 262 260 258 256
245 247 252 257 260 260 254 242 229 217 207 200 201 207 214 220 224 226 229 234 241 247 249 246 244 245 250 255 262 265 266 266 268 272 276 281 285 288 290 293 300 305 306 303 300 297 296 295 296 299 302 305 306 306 305 304 302 301 300 299 297 295 293 291 290 289 289 288 288 287 287 286 284 283 281 279 276 274 271 268 266 264 263 262 261 259 257
244 247 251 256 258 253 244 232 221 210 202 199 201 207 215 220 223 227 233 243 251 256 256 253 251 253 257 262 266 267 268 272 276 279 281 285 290 293 294 297 303 307 307 303 300 298 298 300 303 306 308 309 308 307 306 305 303 303 301 300 298 296 294 293 292 291 290 290 289 288 287 286 284 282 281 279 278 276 274 271 268 265 263 261 259 258 257
243 247 251 254 253 245 233 222 211 203 200 200 204 211 217 221 224 227 235 247 257 261 260 259 260 263 266 266 267 269 274 280 283 284 287 292 297 300 302 305 307 307 304 302 301 302 304 306 308 309 309 310 309 308 306 305 304 302 301 299 297 296 295 295 294 293 292 291 290 289 288 287 285 284 282 281 280 278 277 275 272 269 265 262 259 256 255
241 245 249 249 244 234 223 215 207 203 202 203 208 214 219 223 227 231 240 253 262 265 263 262 264 267 267 267 268 272 279 286 288 288 292 298 302 305 310 313 311 307 303 303 306 309 310 310 311 310 310 309 307 306 306 305 304 303 302 301 301 300 298 297 296 294 292 292 291 290 289 288 286 285 284 283 282 280 278 276 273 271 268 264 261 257 253
239 242 244 243 235 225 218 213 209 207 206 208 212 217 220 224 228 233 242 254 262 264 263 262 266 269 270 271 274 278 284 290 294 294 296 298 298 302 310 315 313 309 307 309 311 312 312 312 312 311 310 309 308 309 310 309 309 308 308 306 304 302 299 298 296 295 295 295 294 293 291 290 288 287 286 284 282 280 277 275 273 271 268 266 263 259 255
239 240 241 239 231 223 217 214 212 212 213 214 217 220 222 225 229 234 243 251 255 258 261 264 268 271 273 275 278 282 286 292 299 302 301 298 295 298 307 314 314 311 310 311 311 312 312 312 312 311 311 312 314 316 315 314 313 312 310 307 305 303 301 301 300 300 299 299 297 295 293 292 291 290 288 285 282 280 278 276 275 273 271 268 264 260 257
238 238 238 235 230 224 220 218 218 218 219 219 220 222 224 227 230 234 241 248 252 255 261 266 270 272 275 278 281 282 284 292 303 308 306 301 298 302 309 314 313 311 311 311 312 312 312 312 313 314 317 319 320 320 318 317 315 313 311 309 308 307 306 306 305 303 302 300 299 297 296 295 293 291 288 286 285 284 283 282 280 276 273 270 266 261 256
236 237 237 235 231 227 226 226 226 225 224 224 224 224 226 230 235 239 245 250 254 256 262 267 271 274 278 283 286 286 287 295 304 307 306 305 307 311 314 314 313 311 311 312 313 313 314 315 318 321 323 324 322 320 319 318 316 315 314 313 312 311 310 308 305 304 304 303 302 301 300 297 294 291 290 291 291 291 290 287 283 277 274 272 269 262 254
235 237 238 237 234 231 231 233 233 230 228 227 227 227 227 230 235 241 244 246 250 256 262 268 271 276 282 287 289 291 293 297 302 307 310 313 315 316 316 314 313 313 313 314 315 316 319 322 324 326 326 324 322 321 321 319 318 317 317 316 314 312 310 308 307 307 307 306 306 305 302 298 295 295 297 298 298 296 293 290 286 282 279 276 269 256 244
236 237 238 238 238 237 237 239 240 238 232 228 228 228 227 229 234 238 239 241 248 257 265 270 274 279 285 289 291 292 291 295 302 310 316 317 316 316 316 315 314 315 316 317 319 321 323 326 327 327 326 325 324 323 322 320 320 320 319 317 315 313 311 310 311 311 311 311 311 308 303 300 302 303 304 305 305 303 300 298 295 290 282 270 249 231 222
Height
5798 5795 5792 5790 5788 5786 5784 5783 5781 5779 5778 5776 5775 5775 5775 5775 5775 5774 5774 5774 5774 5774 5773 5772 5771 5771 5770 5769 5767 5766 5765 5765 5764 5763 5762 5762 5762 5762 5762 5762 5762 5762 5763 5764 5765 5766 5768 5769 5769 5770 5771 5772 5773 5776 5779 5781 5784 5786 5789 5792 5795 5797 5801 5805 5807 5809 5812 5814 5816 5818 5821 5823 5824 5827 5830 5834 5838 5840 5842 5843 5845 5848 5850 5853 5855 5857 5860
5797 5794 5792 5789 5787 5785 5784 5782 5780 5778 5777 5776 5775 5774 5774 5774 5774 5773 5773 5773 5773 5773 5772 5771 5771 5771 5770 5768 5767 5766 5766 5765 5764 5763 5763 5762 5762 5762 5762 5762 5761 5761 5762 5763 5764 5765 5767 5768 5769 5770 5771 5773 5775 5777 5779 5782 5784 5786 5788 5791 5793 5796 5799 5802 5805 5808 5810 5812 5814 5816 5818 5820 5822 5825 5828 5832 5835 5838 5841 5842 5843 5846 5848 5851 5853 5855 5858
5796 5794 5791 5789 5787 5785 5783 5781 5779 5778 5776 5775 5774 5773 5773 5773 5773 5772 5772 5772 5772 5771 5771 5771 5771 5771 5769 5768 5768 5767 5766 5765 5764 5764 5763 5762 5762 5762 5762 5761 5761 5761 5761 5762 5763 5764 5766 5767 5769 5770 5771 5773 5776 5777 5779 5781 5783 5785 5787 5790 5792 5795 5797 5800 5803 5804 5807 5809 5810 5812 5814 5816 5819 5823 5827 5830 5833 5836 5839 5840 5842 5844 5846 5848 5851 5854 5856
5795 5793 5790 5788 5786 5784 5782 5781 5779 5777 5775 5774 5773 5772 5771 5772 5772 5772 5771 5771 5771 5771 5770 5770 5770 5770 5769 5768 5768 5767 5766 5766 5765 5764 5763 5763 5762 5762 5761 5761 5761 5761 5760 5760 5762 5763 5765 5766 5768 5770 5771 5773 5775 5776 5778 5779 5782 5785 5787 5789 5791 5794 5796 5798 5799 5801 5804 5806 5807 5808 5811 5814 5818 5821 5825 5828 5831 5834 5836 5838 5840 5843 5844 5846 5849 5852 5854
5794 5792 5790 5787 5785 5783 5782 5780 5778 5776 5774 5773 5772 5771 5770 5770 5771 5771 5770 5770 5770 5770 5770 5770 5770 5770 5770 5769 5769 5768 5767 5766 5765 5764 5764 5763 5762 5761 5761 5761 5761 5760 5760 5760 5761 5762 5763 5765 5767 5769 5770 5772 5773 5775 5777 5779 5781 5783 5785 5787 5789 5792 5793 5795 5796 5798 5801 5803 5804 5807 5811 5814 5816 5820 5823 5826 5829 5831 5834 5836 5838 5841 5842 5845 5847 5850 5853
5793 5791 5789 5786 5784 5783 5781 5779 5777 5775 5774 5772 5771 5770 5769 5769 5770 5770 5769 5769 5770 5769 5769 5769 5769 5770 5769 5769 5769 5768 5767 5766 5766 5765 5764 5763 5762 5762 5762 5761 5761 5760 5760 5760 5761 5762 5763 5764 5766 5767 5769 5771 5772 5774 5776 5778 5780 5782 5784 5785 5787 5790 5791 5792 5793 5796 5798 5800 5802 5806 5810 5812 5815 5819 5823 5825 5827 5829 5831 5833 5836 5838 5840 5842 5845 5848 5851
5791 5789 5787 5785 5783 5782 5780 5778 5776 5774 5773 5771 5770 5769 5768 5768 5768 5768 5768 5769 5769 5769 5768 5768 5769 5769 5769 5768 5768 5768 5767 5767 5766 5765 5764 5764 5763 5762 5762 5761 5761 5761 5761 5761 5761 5761 5762 5764 5765 5766 5767 5769 5771 5773 5774 5777 5779 5781 5783 5784 5786 5788 5789 5790 5791 5793 5796 5798 5801 5804 5808 5811 5814 5818 5821 5823 5825 5826 5828 5831 5833 5835 5838 5840 5843 5846 5848
5790 5788 5786 5784 5782 5781 5779 5777 5775 5773 5772 5770 5768 5767 5767 5767 5767 5767 5767 5768 5768 5768 5768 5768 5768 5768 5768 5768 5768 5768 5767 5767 5766 5765 5765 5764 5763 5762 5762 5761 5761 5761 5761 5761 5761 5761 5761 5763 5764 5765 5767 5768 5770 5771 5772 5775 5777 5779 5781 5783 5785 5787 5787 5788 5790 5792 5794 5796 5798 5801 5805 5808 5811 5815 5818 5820 5823 5824 5826 5828 5830 5833 5835 5838 5840 5843 5846
5789 5786 5785 5783 5781 5779 5778 5776 5774 5772 5771 5769 5767 5766 5765 5765 5765 5765 5766 5767 5767 5768 5767 5767 5767 5768 5768 5768 5767 5767 5767 5767 5766 5766 5765 5764 5764 5763 5762 5762 5761 5761 5761 5760 5760 5761 5761 5762 5764 5765 5765 5767 5768 5769 5771 5773 5775 5777 5779 5781 5783 5785 5786 5787 5789 5790 5792 5795 5797 5799 5802 5805 5809 5812 5814 5816 5819 5821 5823 5825 5828 5830 5833 5836 5838 5841 5844
5787 5785 5783 5781 5779 5778 5776 5775 5773 5771 5769 5767 5766 5765 5764 5763 5763 5763 5764 5765 5766 5766 5767 5766 5767 5767 5768 5767 5767 5767 5767 5767 5767 5766 5765 5764 5764 5763 5763 5762 5762 5761 5761 5760 5760 5760 5761 5762 5763 5764 5765 5766 5767 5768 5769 5771 5773 5775 5777 5779 5781 5783 5784 5786 5787 5789 5790 5793 5795 5798 5801 5804 5807 5809 5812 5814 5815 5817 5819 5822 5825 5827 5830 5833 5836 5838 5841
5785 5783 5781 5780 5778 5776 5775 5773 5772 5770 5768 5766 5764 5763 5762 5762 5761 5762 5763 5764 5764 5765 5765 5766 5766 5766 5766 5766 5766 5767 5767 5767 5767 5766 5766 5765 5764 5764 5763 5762 5762 5762 5761 5761 5760 5760 5761 5761 5762 5763 5764 5765 5767 5768 5768 5769 5771 5773 5775 5777 5779 5781 5783 5784 5786 5788 5790 5792 5794 5796 5798 5801 5803 5806 5809 5812 5812 5813 5816 5819 5821 5824 5827 5831 5833 5836 5838
5783 5782 5780 5778 5776 5774 5773 5772 5770 5768 5766 5764 5763 5762 5761 5760 5760 5760 5761 5762 5763 5764 5764 5765 5766 5765 5765 5765 5765 5766 5766 5766 5766 5766 5766 5765 5765 5764 5763 5763 5762 5762 5762 5761 5760 5760 5760 5761 5762 5762 5763 5765 5766 5768 5768 5769 5770 5772 5773 5775 5777 5779 5781 5783 5784 5787 5789 5790 5792 5793 5794 5796 5799 5803 5807 5808 5809 5810 5812 5816 5819 5821 5824 5828 5831 5833 5836
5782 5780 5778 5776 5774 5773 5771 5770 5768 5767 5765 5763 5761 5760 5759 5758 5758 5758 5759 5760 5762 5763 5763 5764 5764 5765 5764 5764 5765 5765 5765 5766 5766 5765 5765 5765 5765 5765 5764 5763 5763 5763 5762 5762 5761 5761 5761 5761 5762 5762 5763 5764 5766 5767 5767 5768 5769 5770 5772 5773 5774 5776 5779 5781 5782 5784 5786 5788 5788 5789 5791 5794 5798 5801 5803 5805 5806 5808 5810 5813 5816 5818 5822 5825 5828 5830 5833
5780 5778 5776 5774 5772 5771 5769 5768 5767 5765 5763 5761 5759 5758 5757 5756 5756 5756 5757 5759 5760 5761 5762 5762 5763 5763 5764 5764 5764 5764 5764 5765 5765 5765 5765 5765 5765 5765 5764 5764 5764 5763 5763 5763 5762 5762 5761 5761 5762 5762 5763 5764 5765 5766 5766 5767 5768 5770 5771 5772 5773 5775 5777 5779 5781 5782 5784 5785 5786 5787 5789 5792 5795 5797 5798 5800 5802 5804 5807 5809 5811 5814 5818 5821 5824 5827 5829
5778 5776 5774 5772 5770 5769 5767 5766 5765 5763 5761 5759 5757 5756 5755 5754 5754 5754 5756 5757 5759 5760 5760 5761 5761 5762 5762 5763 5763 5763 5764 5764 5764 5764 5764 5764 5764 5764 5764 5764 5764 5764 5764 5763 5763 5763 5762 5762 5762 5762 5763 5764 5765 5765 5766 5767 5768 5769 5770 5771 5772 5773 5775 5777 5779 5780 5782 5782 5783 5785 5787 5788 5791 5793 5795 5796 5798 5800 5802 5805 5807 5810 5814 5817 5820 5823 5825
5776 5774 5772 5770 5768 5767 5765 5764 5763 5761 5759 5757 5755 5754 5753 5752 5752 5752 5754 5755 5757 5758 5758 5759 5760 5760 5761 5762 5762 5762 5763 5763 5763 5763 5763 5764 5764 5764 5764 5764 5764 5764 5764 5764 5764 5764 5763 5763 5763 5763 5763 5764 5764 5765 5765 5766 5767 5768 5769 5770 5771 5772 5773 5775 5777 5779 5780 5780 5781 5783 5784 5786 5788 5790 5791 5793 5794 5795 5798 5802 5803 5807 5810 5814 5817 5819 5821
5773 5772 5770 5768 5766 5764 5763 5762 5761 5759 5757 5755 5753 5752 5751 5750 5750 5750 5752 5753 5755 5756 5757 5757 5758 5759 5760 5761 5761 5761 5762 5762 5762 5762 5762 5763 5763 5763 5763 5763 5764 5764 5764 5764 5764 5764 5764 5764 5764 5764 5764 5764 5764 5765 5765 5766 5767 5767 5768 5769 5770 5771 5772 5773 5775 5776 5778 5779 5780 5780 5781 5783 5785 5786 5787 5789 5791 5793 5796 5799 5800 5803 5806 5809 5812 5815 5817
5771 5769 5767 5766 5764 5762 5761 5760 5759 5758 5756 5753 5751 5750 5749 5748 5748 5748 5750 5751 5753 5754 5755 5756 5757 5758 5758 5759 5760 5760 5760 5761 5761 5761 5761 5761 5762 5762 5762 5763 5763 5763 5763 5764 5764 5764 5764 5764 5764 5764 5764 5764 5765 5765 5765 5766 5766 5767 5768 5768 5769 5770 5771 5772 5773 5774 5775 5777 5778 5778 5779 5780 5781 5782 5783 5785 5787 5790 5793 5794 5797 5800 5802 5804 5807 5809 5810
5768 5767 5765 5763 5762 5760 5759 5758 5757 5755 5754 5751 5749 5748 5747 5746 5746 5746 5748 5749 5751 5752 5753 5754 5756 5756 5757 5758 5758 5759 5759 5760 5760 5760 5760 5760 5761 5761 5761 5761 5762 5762 5762 5763 5763 5763 5764 5764 5764 5764 5764 5765 5765 5765 5765 5765 5766 5766 5767 5767 5768 5769 5769 5770 5771 5772 5773 5774 5775 5776 5777 5777 5778 5779 5780 5782 5784 5785 5786 5788 5793 5796 5798 5799 5802 5804 5805
5766 5764 5762 5761 5760 5758 5756 5755 5754 5753 5752 5749 5748 5746 5745 5744 5744 5745 5746 5748 5749 5750 5751 5753 5754 5755 5756 5756 5757 5758 5758 5759 5759 5759 5759 5759 5760 5760 5760 5760 5760 5761 5761 5762 5762 5762 5763 5763 5763 5764 5764 5764 5765 5765 5765 5765 5765 5765 5766 5767 5767 5768 5768 5769 5769 5770 5771 5771 5772 5773 5773 5774 5775 5776 5777 5779 5780 5780 5782 5785 5788 5790 5792 5794 5797 5799 5801
5763 5761 5760 5758 5757 5756 5754 5753 5752 5751 5749 5747 5746 5744 5743 5742 5742 5743 5744 5746 5747 5748 5750 5751 5752 5753 5754 5755 5755 5756 5757 5757 5758 5758 5758 5758 5759 5759 5759 5759 5759 5760 5760 5761 5761 5761 5762 5762 5762 5762 5763 5764 5764 5764 5765 5765 5765 5765 5765 5766 5766 5766 5767 5767 5767 5768 5768 5768 5769 5770 5770 5771 5772 5773 5774 5775 5776 5777 5779 5780 5782 5784 5787 5789 5792 5793 5795
5760 5759 5757 5756 5755 5753 5752 5751 5750 5749 5747 5746 5744 5742 5741 5741 5741 5742 5743 5744 5745 5747 5748 5750 5751 5752 5753 5754 5754 5755 5755 5756 5757 5757 5757 5757 5758 5758 5758 5757 5758 5758 5759 5759 5760 5760 5760 5761 5761 5761 5762 5762 5762 5763 5763 5763 5763 5764 5764 5764 5765 5765 5765 5765 5765 5765 5766 5766 5766 5767 5767 5768 5768 5769 5770 5772 5773 5774 5775 5775 5776 5779 5781 5784 5786 5788 5789
5758 5756 5755 5753 5752 5751 5750 5749 5748 5747 5745 5744 5742 5741 5740 5739 5739 5740 5741 5743 5744 5745 5747 5748 5749 5750 5751 5752 5753 5753 5754 5754 5755 5755 5756 5756 5757 5757 5756 5756 5756 5757 5757 5758 5758 5758 5759 5759 5760 5760 5760 5761 5761 5761 5761 5761 5762 5762 5762 5762 5762 5762 5763 5763 5763 5763 5763 5763 5763 5763 5763 5764 5765 5766 5767 5768 5769 5769 5770 5771 5772 5773 5775 5777 5780 5782 5784
5755 5754 5752 5751 5749 5748 5747 5746 5746 5745 5743 5742 5740 5739 5738 5738 5738 5739 5740 5741 5743 5744 5745 5747 5748 5749 5749 5750 5751 5751 5752 5752 5753 5754 5754 5755 5755 5755 5755 5754 5755 5755 5755 5756 5756 5757 5757 5758 5758 5759 5759 5759 5759 5760 5760 5760 5760 5760 5759 5760 5760 5760 5760 5760 5760 5760 5760 5760 5760 5760 5760 5760 5761 5762 5763 5764 5765 5765 5765 5766 5767 5768 5769 5771 5774 5776 5778
5752 5751 5750 5748 5747 5746 5745 5744 5743 5742 5741 5739 5738 5737 5736 5736 5737 5738 5739 5740 5741 5743 5744 5745 5746 5747 5747 5748 5749 5750 5750 5751 5751 5752 5752 5753 5753 5753 5753 5753 5753 5753 5754 5754 5755 5755 5755 5756 5756 5756 5757 5757 5757 5757 5757 5757 5757 5757 5757 5757 5757 5757 5757 5756 5756 5756 5756 5756 5756 5756 5756 5756 5757 5757 5758 5759 5760 5760 5760 5761 5762 5763 5764 5765 5767 5770 5772
5749 5748 5747 5746 5744 5743 5742 5742 5741 5740 5739 5737 5736 5735 5735 5735 5735 5737 5738 5739 5740 5741 5742 5743 5744 5745 5745 5746 5747 5748 5748 5749 5749 5750 5750 5751 5751 5751 5751 5751 5751 5752 5752 5752 5753 5753 5753 5754 5754 5754 5754 5754 5754 5755 5755 5754 5754 5754 5754 5753 5753 5753 5753 5753 5752 5752 5752 5751 5751 5751 5751 5751 5752 5752 5753 5754 5755 5755 5755 5756 5757 5757 5758 5759 5761 5763 5764
5746 5745 5744 5743 5742 5741 5740 5739 5739 5738 5736 5735 5734 5734 5733 5734 5734 5736 5737 5738 5739 5739 5740 5741 5742 5743 5744 5745 5745 5746 5746 5747 5747 5748 5748 5749 5749 5749 5749 5749 5749 5750 5750 5750 5751 5751 5751 5752 5752 5752 5752 5752 5752 5752 5752 5751 5751 5751 5751 5750 5750 5749 5749 5748 5748 5748 5748 5747 5746 5745 5745 5745 5745 5746 5747 5748 5749 5750 5750 5751 5751 5752 5752 5754 5755 5756 5758
5743 5742 5741 5740 5739 5738 5738 5737 5736 5735 5734 5733 5732 5732 5732 5732 5733 5734 5735 5736 5737 5738 5739 5740 5741 5742 5742 5743 5743 5744 5744 5745 5745 5746 5746 5747 5747 5747 5747 5747 5747 5748 5748 5748 5748 5749 5749 5749 5750 5749 5749 5749 5749 5749 5749 5749 5748 5748 5747 5747 5746 5746 5744 5744 5743 5743 5743 5742 5741 5741 5740 5739 5739 5740 5741 5742 5743 5744 5745 5745 5746 5746 5746 5747 5748 5750 5751
5740 5739 5738 5738 5737 5736 5735 5735 5734 5733 5732 5731 5731 5731 5730 5731 5732 5733 5734 5735 5736 5737 5737 5738 5739 5740 5740 5741 5742 5742 5742 5743 5744 5744 5744 5745 5745 5745 5745 5745 5745 5746 5746 5746 5746 5747 5747 5747 5747 5747 5747 5746 5746 5746 5746 5746 5745 5744 5743 5743 5742 5741 5740 5739 5738 5738 5738 5737 5736 5736 5735 5734 5734 5734 5734 5735 5736 5737 5738 5739 5740 5740 5740 5740 5741 5742 5744
5737 5736 5735 5735 5734 5733 5733 5732 5732 5731 5730 5729 5729 5729 5729 5730 5731 5732 5733 5733 5734 5735 5736 5737 5737 5738 5739 5739 5740 5740 5741 5741 5742 5742 5742 5742 5743 5743 5743 5743 5743 5743 5744 5744 5744 5744 5744 5744 5744 5744 5744 5744 5744 5743 5743 5742 5742 5741 5739 5739 5738 5737 5736 5735 5734 5733 5733 5732 5731 5731 5730 5729 5729 5729 5728 5728 5729 5731 5731 5732 5733 5733 5734 5734 5735 5736 5737
5734 5733 5733 5732 5731 5731 5730 5730 5729 5728 5727 5727 5727 5727 5728 5729 5730 5731 5731 5732 5733 5733 5734 5735 5736 5736 5737 5738 5738 5738 5738 5739 5740 5740 5740 5740 5740 5741 5741 5741 5741 5742 5742 5742 5742 5742 5742 5742 5741 5741 5741 5741 5741 5740 5740 5739 5738 5737 5736 5735 5733 5732 5731 5730 5730 5729 5728 5727 5726 5726 5725 5724 5724 5724 5723 5723 5723 5723 5724 5725 5726 5727 5728 5728 5729 5730 5730
5731 5730 5730 5729 5729 5728 5728 5727 5727 5726 5725 5725 5725 5726 5726 5727 5728 5729 5730 5730 5731 5732 5732 5733 5734 5734 5735 5736 5736 5737 5737 5737 5737 5738 5738 5738 5738 5738 5738 5739 5739 5739 5739 5739 5739 5739 5739 5739 5738 5738 5738 5738 5737 5737 5736 5735 5734 5733 5732 5730 5729 5728 5727 5726 5725 5724 5723 5722 5721 5721 5720 5720 5719 5719 5718 5718 5717 5717 5717 5718 5720 5721 5722 5722 5723 5723 5724
5727 5727 5727 5726 5726 5726 5725 5725 5724 5723 5723 5723 5723 5724 5725 5726 5727 5728 5728 5729 5729 5730 5731 5731 5732 5733 5733 5733 5734 5735 5735 5735 5735 5735 5736 5737 5737 5737 5737 5737 5737 5737 5736 5736 5736 5736 5736 5736 5735 5735 5735 5734 5734 5733 5732 5731 5730 5729 5728 5726 5725 5724 5723 5722 5721 5720 5719 5718 5717 5717 5716 5715 5715 5714 5714 5713 5713 5712 5712 5712 5713 5714 5715 5716 5716 5717 5718
5724 5724 5724 5724 5723 5723 5723 5722 5722 5721 5721 5721 5722 5722 5723 5724 5725 5726 5726 5727 5727 5728 5729 5730 5730 5731 5731 5732 5732 5733 5733 5733 5733 5733 5734 5735 5735 5735 5735 5735 5735 5735 5734 5734 5734 5734 5733 5733 5733 5732 5732 5731 5730 5729 5728 5727 5726 5724 5723 5722 5721 5720 5719 5717 5716 5715 5715 5714 5713 5712 5711 5710 5710 5709 5709 5708 5708 5707 5707 5706 5707 5707 5708 5709 5710 5710 5711
5721 5721 5721 5721 5721 5720 5720 5719 5719 5719 5719 5719 5720 5721 5722 5723 5724 5724 5725 5725 5726 5727 5727 5728 5729 5729 5730 5730 5730 5730 5731 5731 5731 5732 5732 5732 5733 5733 5733 5733 5733 5732 5731 5731 5731 5730 5730 5730 5730 5729 5728 5727 5726 5725 5724 5722 5721 5720 5718 5717 5716 5715 5714 5713 5712 5711 5710 5709 5708 5708 5707 5706 5705 5704 5703 5703 5702 5702 5702 5701 5701 5701 5702 5702 5703 5703 5704
5718 5718 5718 5718 5718 5718 5717 5717 5717 5716 5716 5717 5718 5719 5720 5721 5722 5723 5723 5724 5724 5725 5726 5726 5727 5727 5728 5728 5728 5729 5729 5729 5730 5730 5730 5730 5730 5731 5731 5730 5730 5729 5728 5728 5727 5727 5727 5727 5726 5725 5725 5724 5722 5721 5719 5718 5717 5715 5714 5713 5712 5711 5710 5709 5708 5707 5706 5705 5704 5703 5702 5701 5700 5699 5698 5697 5697 5696 5696 5696 5695 5695 5696 5696 5696 5696 5697
5715 5715 5715 5716 5716 5715 5715 5714 5714 5714 5714 5715 5716 5717 5718 5719 5720 5721 5722 5722 5723 5723 5724 5725 5725 5725 5726 5726 5727 5727 5727 5727 5728 5728 5728 5728 5728 5729 5728 5728 5727 5726 5726 5725 5724 5724 5723 5723 5723 5722 5721 5719 5718 5716 5715 5714 5712 5711 5710 5708 5707 5706 5705 5704 5703 5702 5701 5700 5699 5698 5697 5696 5695 5694 5693 5692 5691 5691 5690 5690 5690 5690 5690 5690 5690 5690 5691
5712 5712 5713 5713 5713 5713 5712 5712 5712 5712 5712 5713 5714 5715 5717 5718 5719 5720 5720 5721 5721 5722 5722 5723 5723 5723 5724 5724 5724 5725 5725 5725 5726 5726 5726 5726 5726 5726 5726 5725 5724 5724 5723 5722 5721 5721 5720 5720 5719 5718 5717 5715 5713 5712 5710 5709 5707 5706 5705 5703 5702 5701 5700 5699 5698 5697 5696 5695 5694 5693 5692 5691 5690 5688 5688 5687 5686 5685 5685 5684 5684 5684 5684 5684 5684 5684 5685
5709 5710 5710 5710 5710 5710 5709 5709 5709 5709 5710 5711 5712 5714 5715 5716 5717 5718 5719 5719 5720 5720 5721 5721 5721 5722 5722 5722 5722 5723 5723 5723 5724 5724 5724 5724 5724 5724 5723 5722 5722 5721 5720 5719 5718 5718 5717 5716 5715 5714 5712 5710 5708 5707 5706 5704 5703 5701 5700 5698 5697 5696 5695 5694 5693 5692 5690 5689 5688 5687 5686 5685 5683 5682 5681 5680 5679 5679 5678 5678 5677 5677 5677 5678 5678 5678 5679
5707 5707 5708 5708 5707 5707 5707 5707 5707 5707 5708 5709 5710 5712 5713 5715 5716 5716 5717 5718 5718 5719 5719 5719 5720 5720 5720 5720 5721 5721 5721 5721 5722 5722 5722 5721 5721 5721 5720 5720 5719 5718 5717 5716 5715 5714 5714 5713 5711 5710 5708 5705 5704 5703 5701 5699 5698 5696 5695 5693 5692 5690 5689 5688 5687 5685 5684 5683 5681 5680 5679 5678 5676 5675 5674 5673 5672 5672 5671 5671 5670 5670 5670 5671 5671 5672 5672
5704 5705 5705 5705 5705 5704 5704 5704 5704 5705 5706 5707 5709 5710 5712 5713 5714 5715 5716 5716 5717 5717 5717 5718 5718 5718 5718 5718 5719 5719 5719 5719 5719 5719 5719 5719 5719 5718 5717 5717 5716 5715 5714 5713 5712 5711 5710 5709 5707 5706 5703 5701 5700 5698 5697 5695 5693 5691 5689 5688 5686 5685 5683 5682 5680 5679 5678 5676 5675 5673 5672 5670 5669 5668 5667 5666 5665 5664 5664 5663 5662 5662 5662 5663 5663 5664 5665
5701 5702 5702 5702 5702 5702 5702 5702 5702 5703 5704 5706 5707 5709 5710 5711 5712 5713 5714 5715 5715 5715 5716 5716 5716 5716 5716 5717 5717 5717 5717 5717 5717 5717 5717 5717 5716 5715 5715 5714 5713 5712 5711 5710 5709 5707 5706 5704 5703 5701 5699 5697 5696 5694 5692 5690 5688 5686 5684 5682 5680 5679 5677 5675 5674 5672 5671 5669 5667 5666 5664 5662 5661 5659 5658 5658 5657 5656 5656 5655 5655 5654 5654 5654 5655 5656 5657
5699 5699 5700 5700 5700 5700 5699 5699 5700 5701 5702 5704 5706 5707 5708 5709 5710 5711 5712 5713 5713 5714 5714 5714 5714 5715 5715 5715 5715 5715 5715 5715 5715 5715 5714 5714 5713 5713 5712 5711 5710 5709 5708 5706 5705 5703 5702 5700 5699 5697 5695 5693 5691 5689 5687 5685 5683 5680 5678 5676 5675 5673 5671 5669 5667 5665 5664 5662 5660 5658 5656 5655 5653 5651 5650 5649 5648 5648 5647 5647 5647 5646 5646 5646 5646 5647 5648
5696 5697 5697 5697 5697 5697 5697 5698 5699 5700 5701 5703 5705 5706 5707 5708 5709 5710 5710 5711 5711 5712 5712 5712 5712 5713 5713 5713 5713 5713 5713 5713 5713 5713 5712 5712 5711 5710 5710 5709 5708 5706 5704 5703 5701 5699 5698 5696 5695 5693 5691 5689 5687 5684 5682 5679 5677 5675 5673 5671 5669 5667 5665 5662 5660 5658 5656 5654 5652 5650 5648 5647 5645 5643 5642 5640 5639 5639 5638 5638 5638 5638 5638 5638 5638 5639 5639
5694 5694 5695 5695 5695 5695 5696 5696 5697 5699 5700 5702 5704 5705 5706 5707 5708 5709 5709 5710 5710 5710 5710 5711 5711 5711 5711 5711 5711 5711 5711 5711 5711 5710 5710 5709 5708 5708 5707 5706 5705 5703 5701 5699 5697 5696 5694 5692 5691 5689 5687 5685 5682 5680 5677 5675 5672 5670 5668 5665 5663 5661 5658 5656 5654 5651 5649 5647 5644 5642 5640 5638 5637 5635 5634 5632 5631 5630 5629 5628 5628 5628 5628 5628 5629 5630 5630
5692 5692 5693 5693 5693 5694 5694 5695 5696 5697 5699 5701 5703 5704 5705 5705 5706 5707 5708 5708 5708 5709 5709 5709 5709 5709 5709 5709 5709 5709 5709 5709 5708 5708 5707 5707 5706 5705 5704 5703 5701 5699 5698 5696 5694 5692 5690 5689 5687 5685 5683 5681 5678 5676 5673 5671 5668 5665 5662 5660 5657 5654 5652 5649 5647 5645 5642 5640 5638 5635 5633 5631 5629 5627 5626 5625 5623 5621 5620 5619 5618 5618 5617 5618 5619 5620 5621
5689 5690 5691 5691 5692 5692 5693 5694 5695 5697 5699 5700 5701 5702 5703 5704 5705 5706 5706 5706 5706 5707 5707 5707 5707 5707 5707 5707 5707 5707 5707 5706 5706 5706 5705 5705 5704 5703 5702 5700 5698 5696 5694 5692 5691 5689 5687 5685 5683 5681 5679 5677 5674 5671 5668 5665 5662 5659 5656 5653 5651 5648 5646 5643 5640 5638 5635 5633 5631 5628 5626 5624 5622 5620 5618 5617 5615 5613 5612 5610 5609 5608 5608 5608 5608 5609 5610
5687 5688 5689 5690 5690 5691 5691 5693 5694 5696 5697 5699 5700 5701 5702 5703 5703 5704 5704 5705 5705 5705 5705 5705 5705 5705 5705 5705 5705 5705 5704 5704 5704 5703 5703 5702 5701 5700 5699 5697 5695 5693 5691 5690 5688 5686 5684 5682 5680 5677 5675 5672 5669 5666 5662 5659 5656 5653 5651 5648 5645 5642 5639 5636 5634 5631 5628 5626 5624 5622 5619 5617 5615 5613 5611 5609 5608 5606 5604 5603 5601 5600 5599 5599 5599 5599 5600
5685 5686 5687 5688 5689 5689 5690 5691 5693 5694 5696 5697 5698 5699 5700 5701 5701 5702 5702 5703 5703 5703 5703 5703 5703 5703 5703 5703 5703 5702 5702 5702 5702 5701 5700 5699 5698 5697 5696 5694 5692 5690 5688 5686 5685 5683 5681 5679 5676 5674 5671 5667 5664 5660 5657 5654 5651 5648 5645 5642 5639 5636 5633 5630 5627 5625 5622 5620 5618 5615 5613 5610 5608 5606 5604 5602 5601 5599 5597 5595 5594 5592 5591 5590 5589 5590 5591
5684 5685 5685 5686 5687 5688 5689 5690 5691 5692 5694 5695 5696 5697 5698 5699 5699 5700 5701 5701 5701 5701 5702 5702 5701 5701 5701 5701 5700 5700 5700 5699 5699 5698 5697 5696 5695 5694 5693 5691 5689 5687 5685 5683 5681 5680 5677 5675 5672 5669 5666 5663 5659 5656 5653 5650 5646 5643 5640 5636 5633 5630 5627 5625 5622 5619 5617 5615 5612 5610 5607 5604 5602 5600 5598 5597 5595 5592 5590 5588 5587 5585 5584 5583 5582 5582 5583
5682 5683 5683 5684 5685 5686 5686 5687 5688 5690 5692 5693 5694 5695 5696 5697 5698 5698 5699 5699 5699 5700 5700 5700 5700 5699 5699 5698 5698 5697 5697 5696 5696 5695 5694 5693 5692 5691 5690 5688 5686 5684 5682 5680 5678 5676 5673 5671 5668 5665 5662 5658 5655 5652 5648 5645 5641 5638 5635 5631 5628 5625 5623 5620 5617 5615 5612 5610 5607 5604 5602 5599 5597 5596 5594 5592 5589 5587 5585 5583 5581 5579 5577 5576 5576 5576 5577
5680 5681 5681 5682 5683 5684 5684 5685 5685 5687 5689 5690 5691 5693 5694 5695 5695 5696 5696 5697 5697 5698 5698 5698 5697 5697 5696 5696 5695 5695 5695 5694 5693 5692 5691 5690 5689 5688 5687 5685 5683 5681 5679 5677 5675 5672 5670 5667 5664 5661 5658 5654 5651 5647 5644 5640 5637 5633 5630 5627 5624 5621 5619 5616 5613 5611 5608 5605 5602 5600 5597 5596 5594 5592 5590 5588 5585 5583 5581 5579 5577 5575 5573 5572 5572 5573 5575